TimeGMT,TemperatureF,Dew PointF,Humidity,Sea Level PressureIn,VisibilityMPH,Wind Direction,Wind SpeedMPH,Gust SpeedMPH,PrecipitationIn,Events,Conditions,WindDirDegrees,DateUTC
12:20 AM,23.0,23.0,100,30.63,6.2,Calm,Calm,-,N/A,,Unknown,0,2013-02-26 00:20:00
12:50 AM,23.0,23.0,100,30.66,1.2,SSW,2.3,-,N/A,,Mist,210,2013-02-26 00:50:00
1:20 AM,23.0,23.0,100,30.66,6.2,Calm,Calm,-,N/A,,Unknown,0,2013-02-26 01:20:00
1:50 AM,24.8,23.0,93,30.66,6.2,SSW,4.6,-,N/A,,Unknown,210,2013-02-26 01:50:00
2:20 AM,23.0,23.0,100,30.66,6.2,WSW,3.5,-,N/A,,Partly Cloudy,240,2013-02-26 02:20:00
2:50 AM,23.0,21.2,93,30.63,6.2,SSW,3.5,-,N/A,,Partly Cloudy,210,2013-02-26 02:50:00
3:20 AM,23.0,21.2,93,30.63,6.2,SSW,2.3,-,N/A,,Partly Cloudy,210,2013-02-26 03:20:00
3:50 AM,23.0,21.2,93,30.63,6.2,SW,3.5,-,N/A,,Partly Cloudy,230,2013-02-26 03:50:00
4:20 AM,23.0,21.2,93,30.63,6.2,WSW,2.3,-,N/A,,Partly Cloudy,240,2013-02-26 04:20:00
4:50 AM,23.0,23.0,100,30.63,6.2,Calm,Calm,-,N/A,,Partly Cloudy,0,2013-02-26 04:50:00
5:20 AM,21.2,21.2,100,30.66,6.2,Calm,Calm,-,N/A,,Partly Cloudy,0,2013-02-26 05:20:00
5:50 AM,21.2,21.2,100,30.66,6.2,SW,2.3,-,N/A,,Partly Cloudy,230,2013-02-26 05:50:00
6:20 AM,23.0,21.2,93,30.66,-9999.0,Calm,Calm,-,N/A,,Clear,0,2013-02-26 06:20:00
6:50 AM,21.2,21.2,100,30.66,-9999.0,SW,2.3,-,N/A,,Clear,230,2013-02-26 06:50:00
7:20 AM,23.0,21.2,93,30.66,-9999.0,SW,2.3,-,N/A,,Clear,220,2013-02-26 07:20:00
7:50 AM,24.8,23.0,93,30.66,-9999.0,SSW,2.3,-,N/A,,Clear,210,2013-02-26 07:50:00
8:20 AM,23.0,23.0,100,30.66,-9999.0,SSW,3.5,-,N/A,,Clear,210,2013-02-26 08:20:00
8:50 AM,30.2,28.4,93,30.66,-9999.0,SSW,2.3,-,N/A,,Clear,200,2013-02-26 08:50:00
9:20 AM,32.0,28.4,87,30.66,-9999.0,Calm,Calm,-,N/A,,Clear,0,2013-02-26 09:20:00
9:50 AM,32.0,30.2,93,30.66,-9999.0,WSW,4.6,-,N/A,,Clear,240,2013-02-26 09:50:00
10:20 AM,35.6,32.0,87,30.69,-9999.0,WSW,2.3,-,N/A,,Clear,240,2013-02-26 10:20:00
10:50 AM,37.4,32.0,81,30.69,-9999.0,Variable,2.3,-,N/A,,Clear,0,2013-02-26 10:50:00
11:20 AM,41.0,33.8,76,30.69,-9999.0,Calm,Calm,-,N/A,,Clear,0,2013-02-26 11:20:00
11:50 AM,42.8,33.8,70,30.66,-9999.0,Variable,2.3,-,N/A,,Clear,0,2013-02-26 11:50:00
12:20 PM,42.8,33.8,70,30.66,-9999.0,Variable,2.3,-,N/A,,Clear,0,2013-02-26 12:20:00
12:50 PM,44.6,33.8,66,30.66,-9999.0,Variable,3.5,-,N/A,,Clear,0,2013-02-26 12:50:00
1:20 PM,46.4,30.2,53,30.66,-9999.0,Calm,Calm,-,N/A,,Clear,0,2013-02-26 13:20:00
1:50 PM,46.4,33.8,62,30.63,-9999.0,North,4.6,-,N/A,,Clear,350,2013-02-26 13:50:00
2:20 PM,48.2,35.6,62,30.63,-9999.0,Variable,2.3,-,N/A,,Clear,0,2013-02-26 14:20:00
2:50 PM,46.4,33.8,62,30.63,-9999.0,ENE,4.6,-,N/A,,Clear,70,2013-02-26 14:50:00
3:20 PM,46.4,35.6,66,30.63,-9999.0,ENE,4.6,-,N/A,,Clear,60,2013-02-26 15:20:00
3:50 PM,44.6,33.8,66,30.63,-9999.0,NE,4.6,-,N/A,,Clear,50,2013-02-26 15:50:00
4:20 PM,44.6,33.8,66,30.63,-9999.0,NNE,3.5,-,N/A,,Clear,20,2013-02-26 16:20:00
4:50 PM,41.0,33.8,76,30.63,6.2,NNE,4.6,-,N/A,,Partly Cloudy,20,2013-02-26 16:50:00
5:20 PM,37.4,32.0,81,30.63,-9999.0,East,3.5,-,N/A,,Clear,100,2013-02-26 17:20:00
5:50 PM,35.6,30.2,81,30.63,-9999.0,ENE,3.5,-,N/A,,Clear,60,2013-02-26 17:50:00
6:20 PM,28.4,26.6,93,30.63,-9999.0,Calm,Calm,-,N/A,,Clear,0,2013-02-26 18:20:00
6:50 PM,28.4,26.6,93,30.63,-9999.0,SW,2.3,-,N/A,,Clear,230,2013-02-26 18:50:00
7:20 PM,26.6,24.8,93,30.63,-9999.0,Calm,Calm,-,N/A,,Clear,0,2013-02-26 19:20:00
7:50 PM,24.8,24.8,100,30.66,-9999.0,Calm,Calm,-,N/A,,Clear,0,2013-02-26 19:50:00
8:20 PM,24.8,24.8,100,30.66,-9999.0,SSW,2.3,-,N/A,,Clear,210,2013-02-26 20:20:00
8:50 PM,23.0,21.2,93,30.66,-9999.0,Calm,Calm,-,N/A,,Clear,0,2013-02-26 20:50:00
9:20 PM,23.0,21.2,93,30.66,6.2,Calm,Calm,-,N/A,Fog,Shallow Fog,0,2013-02-26 21:20:00
9:50 PM,23.0,21.2,93,30.66,5.0,Variable,2.3,-,N/A,,Unknown,0,2013-02-26 21:50:00
10:20 PM,21.2,21.2,100,30.66,4.3,Calm,Calm,-,N/A,,Unknown,0,2013-02-26 22:20:00
10:50 PM,23.0,21.2,93,30.66,6.2,Calm,Calm,-,N/A,,Unknown,0,2013-02-26 22:50:00
11:20 PM,21.2,21.2,100,30.66,6.2,SW,3.5,-,N/A,,Unknown,220,2013-02-26 23:20:00
11:50 PM,24.8,23.0,93,30.66,6.2,SW,4.6,-,N/A,,Unknown,220,2013-02-26 23:50:00